Time,TemperatureF,DewpointF,PressureIn,WindDirection,WindDirectionDegrees,WindSpeedMPH,WindSpeedGustMPH,Humidity,HourlyPrecipIn,Conditions,Clouds,dailyrainin,SoftwareType,DateUTC
2013-04-27 00:00:00,51.5,43.8,30.43,East,82,0.0,0.0,75,0.00,,,0.00,Wunderground v.1.15,2013-04-27 04:00:00,
2013-04-27 00:10:00,51.3,43.3,30.43,East,82,0.0,0.0,74,0.00,,,0.00,Wunderground v.1.15,2013-04-27 04:10:00,
2013-04-27 00:20:00,50.9,43.3,30.43,East,82,0.0,0.0,75,0.00,,,0.00,Wunderground v.1.15,2013-04-27 04:20:00,
2013-04-27 00:30:00,50.7,43.8,30.43,East,82,0.0,0.0,77,0.00,,,0.00,Wunderground v.1.15,2013-04-27 04:30:00,
2013-04-27 00:40:00,50.5,42.9,30.42,East,82,0.0,0.0,75,0.00,,,0.00,Wunderground v.1.15,2013-04-27 04:40:00,
2013-04-27 00:50:00,50.8,42.8,30.43,East,82,0.0,0.0,74,0.00,,,0.00,Wunderground v.1.15,2013-04-27 04:50:00,
2013-04-27 01:00:00,51.0,42.6,30.43,East,82,0.0,0.0,73,0.00,,,0.00,Wunderground v.1.15,2013-04-27 05:00:00,
2013-04-27 01:10:00,51.2,43.5,30.43,East,82,0.0,0.0,75,0.00,,,0.00,Wunderground v.1.15,2013-04-27 05:10:00,
2013-04-27 01:20:00,51.5,42.8,30.43,East,82,0.0,1.0,72,0.00,,,0.00,Wunderground v.1.15,2013-04-27 05:20:00,
2013-04-27 01:30:00,51.9,42.4,30.43,East,82,0.0,0.0,70,0.00,,,0.00,Wunderground v.1.15,2013-04-27 05:30:00,
2013-04-27 01:40:00,52.1,41.9,30.43,East,82,0.0,0.0,68,0.00,,,0.00,Wunderground v.1.15,2013-04-27 05:40:00,
2013-04-27 01:50:00,52.1,41.9,30.43,East,82,0.0,0.0,68,0.00,,,0.00,Wunderground v.1.15,2013-04-27 05:50:00,
2013-04-27 02:00:00,52.1,42.2,30.43,East,82,0.0,0.0,69,0.00,,,0.00,Wunderground v.1.15,2013-04-27 06:00:00,
2013-04-27 02:10:00,52.1,41.5,30.43,East,82,0.0,0.0,67,0.00,,,0.00,Wunderground v.1.15,2013-04-27 06:10:00,
2013-04-27 02:20:00,52.1,41.5,30.43,East,82,0.0,0.0,67,0.00,,,0.00,Wunderground v.1.15,2013-04-27 06:20:00,
2013-04-27 02:30:00,52.2,41.6,30.43,East,82,0.0,0.0,67,0.00,,,0.00,Wunderground v.1.15,2013-04-27 06:30:00,
2013-04-27 02:40:00,52.1,41.9,30.42,East,82,0.0,1.0,68,0.00,,,0.00,Wunderground v.1.15,2013-04-27 06:40:00,
2013-04-27 02:50:00,51.9,41.7,30.42,East,82,0.0,1.0,68,0.00,,,0.00,Wunderground v.1.15,2013-04-27 06:50:00,
2013-04-27 03:00:00,51.7,41.5,30.42,East,82,0.0,0.0,68,0.00,,,0.00,Wunderground v.1.15,2013-04-27 07:00:00,
2013-04-27 03:10:00,51.2,43.2,30.42,East,82,0.0,0.0,74,0.00,,,0.00,Wunderground v.1.15,2013-04-27 07:10:00,
2013-04-27 03:20:00,50.6,43.3,30.42,East,82,0.0,0.0,76,0.00,,,0.00,Wunderground v.1.15,2013-04-27 07:20:00,
2013-04-27 03:30:00,50.2,43.6,30.42,East,82,0.0,0.0,78,0.00,,,0.00,Wunderground v.1.15,2013-04-27 07:30:00,
2013-04-27 03:40:00,50.3,41.6,30.42,East,82,0.0,1.0,72,0.00,,,0.00,Wunderground v.1.15,2013-04-27 07:40:00,
2013-04-27 03:50:00,50.3,42.7,30.42,East,82,0.0,1.0,75,0.00,,,0.00,Wunderground v.1.15,2013-04-27 07:50:00,
2013-04-27 04:00:00,50.2,41.2,30.42,East,82,0.0,0.0,71,0.00,,,0.00,Wunderground v.1.15,2013-04-27 08:00:00,
2013-04-27 04:10:00,50.1,41.4,30.42,East,82,0.0,0.0,72,0.00,,,0.00,Wunderground v.1.15,2013-04-27 08:10:00,
2013-04-27 04:20:00,49.9,42.3,30.42,East,82,0.0,0.0,75,0.00,,,0.00,Wunderground v.1.15,2013-04-27 08:20:00,
2013-04-27 04:30:00,49.5,41.9,30.42,East,82,0.0,0.0,75,0.00,,,0.00,Wunderground v.1.15,2013-04-27 08:30:00,
2013-04-27 04:40:00,49.0,42.8,30.42,East,82,0.0,2.0,79,0.00,,,0.00,Wunderground v.1.15,2013-04-27 08:40:00,
2013-04-27 04:50:00,48.4,42.2,30.42,East,82,0.0,2.0,79,0.00,,,0.00,Wunderground v.1.15,2013-04-27 08:50:00,
2013-04-27 05:00:00,47.9,42.3,30.42,East,82,0.0,0.0,81,0.00,,,0.00,Wunderground v.1.15,2013-04-27 09:00:00,
2013-04-27 05:10:00,47.6,42.4,30.42,East,82,0.0,0.0,82,0.00,,,0.00,Wunderground v.1.15,2013-04-27 09:10:00,
2013-04-27 05:20:00,47.4,42.5,30.42,East,82,0.0,0.0,83,0.00,,,0.00,Wunderground v.1.15,2013-04-27 09:20:00,
2013-04-27 05:30:00,47.2,42.3,30.42,East,82,0.0,0.0,83,0.00,,,0.00,Wunderground v.1.15,2013-04-27 09:30:00,
2013-04-27 05:40:00,47.0,42.4,30.42,East,82,0.0,1.0,84,0.00,,,0.00,Wunderground v.1.15,2013-04-27 09:40:00,
2013-04-27 05:50:00,46.6,41.4,30.42,East,82,0.0,1.0,82,0.00,,,0.00,Wunderground v.1.15,2013-04-27 09:50:00,
2013-04-27 06:00:00,46.4,41.5,30.43,East,82,0.0,0.0,83,0.00,,,0.00,Wunderground v.1.15,2013-04-27 10:00:00,
2013-04-27 06:10:00,46.1,41.8,30.43,East,82,0.0,0.0,85,0.00,,,0.00,Wunderground v.1.15,2013-04-27 10:10:00,
2013-04-27 06:20:00,45.8,41.9,30.43,East,82,0.0,0.0,86,0.00,,,0.00,Wunderground v.1.15,2013-04-27 10:20:00,
2013-04-27 06:30:00,45.5,41.6,30.43,East,82,0.0,0.0,86,0.00,,,0.00,Wunderground v.1.15,2013-04-27 10:30:00,
2013-04-27 06:40:00,45.3,41.7,30.43,East,82,0.0,1.0,87,0.00,,,0.00,Wunderground v.1.15,2013-04-27 10:40:00,
2013-04-27 06:50:00,45.1,41.5,30.44,East,82,0.0,1.0,87,0.00,,,0.00,Wunderground v.1.15,2013-04-27 10:50:00,
2013-04-27 07:00:00,45.0,41.7,30.44,East,82,0.0,0.0,88,0.00,,,0.00,Wunderground v.1.15,2013-04-27 11:00:00,
2013-04-27 07:10:00,44.9,41.9,30.44,East,82,0.0,0.0,89,0.00,,,0.00,Wunderground v.1.15,2013-04-27 11:10:00,
2013-04-27 07:20:00,44.9,41.9,30.44,East,82,0.0,0.0,89,0.00,,,0.00,Wunderground v.1.15,2013-04-27 11:20:00,
2013-04-27 07:30:00,45.2,42.4,30.45,East,82,0.0,0.0,90,0.00,,,0.00,Wunderground v.1.15,2013-04-27 11:30:00,
2013-04-27 07:40:00,45.4,42.3,30.45,East,82,0.0,0.0,89,0.00,,,0.00,Wunderground v.1.15,2013-04-27 11:40:00,
2013-04-27 07:50:00,45.8,42.7,30.45,East,82,0.0,0.0,89,0.00,,,0.00,Wunderground v.1.15,2013-04-27 11:50:00,
2013-04-27 08:00:00,46.6,43.5,30.45,East,82,0.0,0.0,89,0.00,,,0.00,Wunderground v.1.15,2013-04-27 12:00:00,
2013-04-27 08:10:00,47.8,44.1,30.45,East,82,0.0,0.0,87,0.00,,,0.00,Wunderground v.1.15,2013-04-27 12:10:00,
2013-04-27 08:20:00,49.0,43.7,30.46,East,81,1.0,1.0,82,0.00,,,0.00,Wunderground v.1.15,2013-04-27 12:20:00,
2013-04-27 08:30:00,50.0,43.4,30.46,East,81,0.0,0.0,78,0.00,,,0.00,Wunderground v.1.15,2013-04-27 12:30:00,
2013-04-27 08:40:00,51.4,43.4,30.45,East,93,1.0,1.0,74,0.00,,,0.00,Wunderground v.1.15,2013-04-27 12:40:00,
2013-04-27 08:50:00,53.1,43.9,30.45,North,5,1.0,1.0,71,0.00,,,0.00,Wunderground v.1.15,2013-04-27 12:50:00,
2013-04-27 09:00:00,53.7,44.1,30.45,North,5,1.0,1.0,70,0.00,,,0.00,Wunderground v.1.15,2013-04-27 13:00:00,
2013-04-27 09:10:00,54.8,44.4,30.45,NE,52,1.0,1.0,68,0.00,,,0.00,Wunderground v.1.15,2013-04-27 13:10:00,
2013-04-27 09:20:00,56.0,44.4,30.45,SE,126,1.0,2.0,65,0.00,,,0.00,Wunderground v.1.15,2013-04-27 13:20:00,
2013-04-27 09:30:00,57.0,44.5,30.44,East,83,1.0,1.0,63,0.00,,,0.00,Wunderground v.1.15,2013-04-27 13:30:00,
2013-04-27 09:40:00,57.9,45.0,30.44,East,100,1.0,3.0,62,0.00,,,0.00,Wunderground v.1.15,2013-04-27 13:40:00,
2013-04-27 09:50:00,58.9,45.9,30.44,SE,128,1.0,3.0,62,0.00,,,0.00,Wunderground v.1.15,2013-04-27 13:50:00,
2013-04-27 10:00:00,59.5,45.2,30.44,SSE,153,1.0,2.0,59,0.00,,,0.00,Wunderground v.1.15,2013-04-27 14:00:00,
2013-04-27 10:10:00,60.7,45.8,30.44,SE,140,1.0,1.0,58,0.00,,,0.00,Wunderground v.1.15,2013-04-27 14:10:00,
2013-04-27 10:20:00,61.0,46.1,30.44,ESE,119,2.0,2.0,58,0.00,,,0.00,Wunderground v.1.15,2013-04-27 14:20:00,
2013-04-27 10:30:00,61.6,44.3,30.44,SE,129,2.0,3.0,53,0.00,,,0.00,Wunderground v.1.15,2013-04-27 14:30:00,
2013-04-27 10:40:00,62.0,45.2,30.44,SE,129,2.0,2.0,54,0.00,,,0.00,Wunderground v.1.15,2013-04-27 14:40:00,
2013-04-27 10:50:00,62.2,45.8,30.44,SE,126,2.0,5.0,55,0.00,,,0.00,Wunderground v.1.15,2013-04-27 14:50:00,
2013-04-27 11:00:00,63.2,45.8,30.43,ESE,108,1.0,1.0,53,0.00,,,0.00,Wunderground v.1.15,2013-04-27 15:00:00,
2013-04-27 11:10:00,62.9,46.0,30.43,SSE,155,2.0,2.0,54,0.00,,,0.00,Wunderground v.1.15,2013-04-27 15:10:00,
2013-04-27 11:20:00,63.7,47.2,30.43,NNW,329,1.0,1.0,55,0.00,,,0.00,Wunderground v.1.15,2013-04-27 15:20:00,
2013-04-27 11:30:00,64.0,46.5,30.42,NNW,346,2.0,4.0,53,0.00,,,0.00,Wunderground v.1.15,2013-04-27 15:30:00,
2013-04-27 11:40:00,63.5,46.6,30.42,SSE,167,2.0,2.0,54,0.00,,,0.00,Wunderground v.1.15,2013-04-27 15:40:00,
2013-04-27 11:50:00,65.3,48.2,30.42,NNE,29,2.0,2.0,54,0.00,,,0.00,Wunderground v.1.15,2013-04-27 15:50:00,
2013-04-27 12:00:00,65.4,46.8,30.42,NNW,342,2.0,2.0,51,0.00,,,0.00,Wunderground v.1.15,2013-04-27 16:00:00,
2013-04-27 12:10:00,65.7,46.5,30.41,East,82,2.0,2.0,50,0.00,,,0.00,Wunderground v.1.15,2013-04-27 16:10:00,
2013-04-27 12:20:00,66.7,46.9,30.41,ENE,59,1.0,2.0,49,0.00,,,0.00,Wunderground v.1.15,2013-04-27 16:20:00,
2013-04-27 12:30:00,66.6,45.2,30.40,SE,145,1.0,2.0,46,0.00,,,0.00,Wunderground v.1.15,2013-04-27 16:30:00,
2013-04-27 12:40:00,67.6,47.2,30.40,SSE,155,2.0,2.0,48,0.00,,,0.00,Wunderground v.1.15,2013-04-27 16:40:00,
2013-04-27 12:50:00,68.5,45.1,30.39,SE,141,2.0,5.0,43,0.00,,,0.00,Wunderground v.1.15,2013-04-27 16:50:00,
2013-04-27 13:00:00,68.7,47.6,30.39,ESE,115,2.0,2.0,47,0.00,,,0.00,Wunderground v.1.15,2013-04-27 17:00:00,
2013-04-27 13:10:00,68.9,44.2,30.38,SSE,152,3.0,5.0,41,0.00,,,0.00,Wunderground v.1.15,2013-04-27 17:10:00,
2013-04-27 13:20:00,68.7,44.7,30.38,NNW,336,4.0,4.0,42,0.00,,,0.00,Wunderground v.1.15,2013-04-27 17:20:00,
2013-04-27 13:30:00,68.5,45.1,30.37,North,355,4.0,4.0,43,0.00,,,0.00,Wunderground v.1.15,2013-04-27 17:30:00,
2013-04-27 13:40:00,68.9,44.9,30.37,SSW,196,4.0,4.0,42,0.00,,,0.00,Wunderground v.1.15,2013-04-27 17:40:00,
2013-04-27 13:50:00,69.6,44.2,30.36,East,87,3.0,3.0,40,0.00,,,0.00,Wunderground v.1.15,2013-04-27 17:50:00,
2013-04-27 14:00:00,70.3,44.2,30.36,South,173,3.0,3.0,39,0.00,,,0.00,Wunderground v.1.15,2013-04-27 18:00:00,
2013-04-27 14:10:00,70.7,45.8,30.36,ESE,117,3.0,3.0,41,0.00,,,0.00,Wunderground v.1.15,2013-04-27 18:10:00,
2013-04-27 14:20:00,70.4,43.6,30.36,WNW,296,3.0,3.0,38,0.00,,,0.00,Wunderground v.1.15,2013-04-27 18:20:00,
2013-04-27 14:30:00,71.0,43.4,30.36,SSW,200,4.0,6.0,37,0.00,,,0.00,Wunderground v.1.15,2013-04-27 18:30:00,
2013-04-27 14:40:00,71.0,43.4,30.35,South,181,3.0,3.0,37,0.00,,,0.00,Wunderground v.1.15,2013-04-27 18:40:00,
2013-04-27 14:50:00,71.2,43.6,30.35,SSW,211,2.0,9.0,37,0.00,,,0.00,Wunderground v.1.15,2013-04-27 18:50:00,
2013-04-27 15:00:00,71.3,43.0,30.35,South,190,3.0,3.0,36,0.00,,,0.00,Wunderground v.1.15,2013-04-27 19:00:00,
2013-04-27 15:10:00,71.1,42.0,30.34,NNW,341,2.0,2.0,35,0.00,,,0.00,Wunderground v.1.15,2013-04-27 19:10:00,
2013-04-27 15:20:00,71.9,42.0,30.34,ESE,106,3.0,7.0,34,0.00,,,0.00,Wunderground v.1.15,2013-04-27 19:20:00,
2013-04-27 15:30:00,72.1,43.7,30.33,ESE,107,3.0,3.0,36,0.00,,,0.00,Wunderground v.1.15,2013-04-27 19:30:00,
2013-04-27 15:40:00,72.7,44.2,30.33,East,98,2.0,9.0,36,0.00,,,0.00,Wunderground v.1.15,2013-04-27 19:40:00,
2013-04-27 15:50:00,72.4,43.2,30.32,South,182,3.0,3.0,35,0.00,,,0.00,Wunderground v.1.15,2013-04-27 19:50:00,
2013-04-27 16:00:00,72.5,42.5,30.32,SSE,155,2.0,4.0,34,0.00,,,0.00,Wunderground v.1.15,2013-04-27 20:00:00,
2013-04-27 16:10:00,72.1,44.4,30.31,SSE,160,2.0,3.0,37,0.00,,,0.00,Wunderground v.1.15,2013-04-27 20:10:00,
2013-04-27 16:20:00,71.9,43.5,30.31,SSE,154,2.0,2.0,36,0.00,,,0.00,Wunderground v.1.15,2013-04-27 20:20:00,
2013-04-27 16:30:00,71.6,43.2,30.31,South,170,3.0,3.0,36,0.00,,,0.00,Wunderground v.1.15,2013-04-27 20:30:00,
2013-04-27 16:40:00,71.7,42.6,30.30,SSE,163,2.0,10.0,35,0.00,,,0.00,Wunderground v.1.15,2013-04-27 20:40:00,
2013-04-27 16:50:00,71.8,41.9,30.30,SW,221,2.0,2.0,34,0.00,,,0.00,Wunderground v.1.15,2013-04-27 20:50:00,
2013-04-27 17:00:00,71.9,42.8,30.30,ESE,105,2.0,3.0,35,0.00,,,0.00,Wunderground v.1.15,2013-04-27 21:00:00,
2013-04-27 17:10:00,71.8,42.7,30.30,South,182,2.0,2.0,35,0.00,,,0.00,Wunderground v.1.15,2013-04-27 21:10:00,
2013-04-27 17:20:00,71.2,42.1,30.30,SE,137,3.0,3.0,35,0.00,,,0.00,Wunderground v.1.15,2013-04-27 21:20:00,
2013-04-27 17:30:00,71.2,41.4,30.30,South,188,3.0,8.0,34,0.00,,,0.00,Wunderground v.1.15,2013-04-27 21:30:00,
2013-04-27 17:40:00,71.6,42.5,30.30,SE,137,3.0,9.0,35,0.00,,,0.00,Wunderground v.1.15,2013-04-27 21:40:00,
2013-04-27 17:50:00,71.2,42.1,30.30,SSW,194,3.0,3.0,35,0.00,,,0.00,Wunderground v.1.15,2013-04-27 21:50:00,
2013-04-27 18:00:00,70.8,41.8,30.30,SE,140,2.0,2.0,35,0.00,,,0.00,Wunderground v.1.15,2013-04-27 22:00:00,
2013-04-27 18:10:00,70.7,41.7,30.30,SSW,204,3.0,3.0,35,0.00,,,0.00,Wunderground v.1.15,2013-04-27 22:10:00,
2013-04-27 18:20:00,70.3,43.5,30.30,SE,140,3.0,3.0,38,0.00,,,0.00,Wunderground v.1.15,2013-04-27 22:20:00,
2013-04-27 18:30:00,70.1,44.0,30.30,SE,126,2.0,2.0,39,0.00,,,0.00,Wunderground v.1.15,2013-04-27 22:30:00,
2013-04-27 18:40:00,69.8,43.0,30.29,SW,217,2.0,2.0,38,0.00,,,0.00,Wunderground v.1.15,2013-04-27 22:40:00,
2013-04-27 18:50:00,69.6,44.2,30.29,SSE,162,1.0,10.0,40,0.00,,,0.00,Wunderground v.1.15,2013-04-27 22:50:00,
2013-04-27 19:00:00,69.3,43.3,30.29,SSE,148,1.0,1.0,39,0.00,,,0.00,Wunderground v.1.15,2013-04-27 23:00:00,
2013-04-27 19:10:00,69.0,44.9,30.29,SSE,148,0.0,0.0,42,0.00,,,0.00,Wunderground v.1.15,2013-04-27 23:10:00,
2013-04-27 19:20:00,68.6,44.6,30.29,SSE,148,0.0,0.0,42,0.00,,,0.00,Wunderground v.1.15,2013-04-27 23:20:00,
2013-04-27 19:30:00,68.0,44.7,30.29,SSE,148,0.0,0.0,43,0.00,,,0.00,Wunderground v.1.15,2013-04-27 23:30:00,
2013-04-27 19:40:00,67.5,46.0,30.29,SSE,148,0.0,6.0,46,0.00,,,0.00,Wunderground v.1.15,2013-04-27 23:40:00,
2013-04-27 19:50:00,66.6,45.7,30.28,SSE,148,0.0,6.0,47,0.00,,,0.00,Wunderground v.1.15,2013-04-27 23:50:00,
2013-04-27 20:00:00,65.9,45.6,30.28,SSE,148,0.0,0.0,48,0.00,,,0.00,Wunderground v.1.15,2013-04-28 00:00:00,
2013-04-27 20:10:00,65.2,45.5,30.28,SSE,148,0.0,0.0,49,0.00,,,0.00,Wunderground v.1.15,2013-04-28 00:10:00,
2013-04-27 20:20:00,64.4,46.4,30.29,SSE,148,0.0,0.0,52,0.00,,,0.00,Wunderground v.1.15,2013-04-28 00:20:00,
2013-04-27 20:30:00,63.6,47.1,30.29,SSE,148,0.0,0.0,55,0.00,,,0.00,Wunderground v.1.15,2013-04-28 00:30:00,
2013-04-27 20:40:00,62.9,47.0,30.29,SSE,148,0.0,1.0,56,0.00,,,0.00,Wunderground v.1.15,2013-04-28 00:40:00,
2013-04-27 20:50:00,62.2,44.9,30.29,SSE,148,0.0,1.0,53,0.00,,,0.00,Wunderground v.1.15,2013-04-28 00:50:00,
2013-04-27 21:00:00,62.2,45.8,30.29,South,170,0.0,1.0,55,0.00,,,0.00,Wunderground v.1.15,2013-04-28 01:00:00,
2013-04-27 21:10:00,62.3,46.4,30.30,South,170,0.0,0.0,56,0.00,,,0.00,Wunderground v.1.15,2013-04-28 01:10:00,
2013-04-27 21:20:00,62.0,46.1,30.30,South,170,0.0,0.0,56,0.00,,,0.00,Wunderground v.1.15,2013-04-28 01:20:00,
2013-04-27 21:30:00,61.9,46.0,30.30,South,170,0.0,0.0,56,0.00,,,0.00,Wunderground v.1.15,2013-04-28 01:30:00,
2013-04-27 21:40:00,61.7,45.4,30.30,South,170,0.0,0.0,55,0.00,,,0.00,Wunderground v.1.15,2013-04-28 01:40:00,
2013-04-27 21:50:00,61.3,45.5,30.30,South,170,0.0,0.0,56,0.00,,,0.00,Wunderground v.1.15,2013-04-28 01:50:00,
2013-04-27 22:00:00,61.0,45.2,30.30,South,170,0.0,0.0,56,0.00,,,0.00,Wunderground v.1.15,2013-04-28 02:00:00,
2013-04-27 22:10:00,60.6,45.7,30.30,South,170,0.0,0.0,58,0.00,,,0.00,Wunderground v.1.15,2013-04-28 02:10:00,
2013-04-27 22:20:00,60.0,47.4,30.30,South,170,0.0,0.0,63,0.00,,,0.00,Wunderground v.1.15,2013-04-28 02:20:00,
2013-04-27 22:30:00,59.5,48.1,30.30,South,170,0.0,0.0,66,0.00,,,0.00,Wunderground v.1.15,2013-04-28 02:30:00,
2013-04-27 22:40:00,59.0,47.7,30.30,South,170,0.0,1.0,66,0.00,,,0.00,Wunderground v.1.15,2013-04-28 02:40:00,
2013-04-27 22:50:00,58.9,47.2,30.30,South,173,0.0,1.0,65,0.00,,,0.00,Wunderground v.1.15,2013-04-28 02:50:00,
2013-04-27 23:00:00,58.9,46.3,30.30,South,173,0.0,1.0,63,0.00,,,0.00,Wunderground v.1.15,2013-04-28 03:00:00,
2013-04-27 23:10:00,59.5,45.6,30.30,SSE,154,1.0,1.0,60,0.00,,,0.00,Wunderground v.1.15,2013-04-28 03:10:00,
2013-04-27 23:20:00,60.0,45.2,30.31,SSW,194,2.0,2.0,58,0.00,,,0.00,Wunderground v.1.15,2013-04-28 03:20:00,
2013-04-27 23:30:00,60.3,45.0,30.31,SSE,157,3.0,3.0,57,0.00,,,0.00,Wunderground v.1.15,2013-04-28 03:30:00,
2013-04-27 23:40:00,60.0,44.7,30.31,SE,131,2.0,5.0,57,0.00,,,0.00,Wunderground v.1.15,2013-04-28 03:40:00,
2013-04-27 23:50:00,59.9,44.2,30.30,SSE,157,2.0,2.0,56,0.00,,,0.00,Wunderground v.1.15,2013-04-28 03:50:00,